Regional Weather Roundup
Issued by NWS State College, PA

Home | Current Version | Previous Version | Text Only | Print | Product List | Glossary Off
Versions: 1 2 3 4 5 6 7 8 9 10 11 12 13 14 15 16 17 18 19 20 21 22 23 24 25 26 27 28 29 30 31 32 33 34 35 36 37 38 39 40 41 42 43 44 45 46 47 48 49 50

000
ASUS41 KCTP 210603
RWRCTP

REGIONAL WEATHER ROUNDUP
NATIONAL WEATHER SERVICE STATE COLLEGE PA
200 AM EDT TUE APR 21 2015

Note: "fair" indicates few or no clouds below 12,000 feet with no
significant weather and/or obstructions to visibility.

* = STATION THAT DOES NOT REPORT PRECIPITATION /E.G. RAIN...SNOW...ETC/
    THUNDER OR FOG.

PAZ002>004-007>009-013>016-020>023-029>032-210700-
WESTERN PENNSYLVANIA

CITY           SKY/WX    TMP DP  RH WIND       PRES   REMARKS
ERIE           CLOUDY    45  38  76 W10       29.63R
MEADVILLE      FAIR      45  33  63 W13       29.63R
FRANKLIN*      MOCLDY    45  32  61 W9        29.66R
NEW CASTLE     FAIR      46  36  68 SW10      29.69R
BEAVER COUNTY  NOT AVBL
BUTLER*        MOCLDY    46  36  66 W10       29.70R
PITTSBURGH INT CLOUDY    49  34  56 W12       29.69R
PITTSBURGH     CLOUDY    49  31  49 W14G22    29.69R
INDIANA*       CLOUDY    50  43  76 NW9G23    29.70R
LATROBE        MOCLDY    50  41  71 W9G17     29.70R
WASHINGTON CO* MOCLDY    48  34  57 W9        29.73R
$$

PAZ004>006-010>012-017>019-024>028-033>037-041-042-045-046-049>053-210700-
CENTRAL PENNSYLVANIA

CITY           SKY/WX    TMP DP  RH WIND       PRES   REMARKS
BRADFORD       LGT RAIN  45  41  86 W12       29.62R
DUBOIS         CLOUDY    50  38  63 W13       29.62R
CLEARFIELD     CLOUDY    52  40  63 W12G22    29.63R
JOHNSTOWN      CLOUDY    47  42  83 W9        29.65R
ALTOONA        CLOUDY    53  44  71 NW15      29.64R
STATE COLLEGE  RAIN      52  46  81 W8        29.61R
WILLIAMSPORT   LGT RAIN  56  53  90 CALM      29.56S
SELINSGROVE    RAIN      56  55  97 CALM      29.58F FOG
FT INDIANTOWN  DRIZZLE   56  56  99 NE2       29.57F FOG
CAPITAL CITY   LGT RAIN  57  56  96 CALM      29.59R
HARRISBURG     CLOUDY    58  56  93 CALM      29.58R
YORK           LGT RAIN  57  56  96 CALM      29.60R
$$

PAZ038>040-043-044-047-048-054-055-060>062-067>071-210700-
EASTERN PENNSYLVANIA

CITY           SKY/WX    TMP DP  RH WIND       PRES   REMARKS
SCRANTON       LGT RAIN  56  52  86 MISG      29.56F
MOUNT POCONO   RAIN      52  49  89 NW6       29.58S
ALLENTOWN      RAIN      55  53  93 SW7       29.60R FOG
QUAKERTOWN*    MOCLDY    55  55 100 N3        29.60F
READING        MOCLDY    56  54  93 N5        29.56F
LANCASTER      FAIR      55  55 100 E3        29.57F
COATESVILLE    FAIR      55  55 100 NW5       29.58F
POTTSTOWN      LGT RAIN  57  57 100 NE9       29.56F
BLUE BELL      CLOUDY    61  59  94 N3        29.57S
DOYLESTOWN     LGT RAIN  56  55  97 NW9       29.58S
WILLOW GROVE   NOT AVBL
NORTH PHILA    RAIN      62  55  77 W6        29.61R
PHILADELPHIA   LGT RAIN  61  57  87 NW6       29.56R
$$



USA.gov is the U.S. government's official web portal to all federal, state and local government web resources and services.